Regional Weather Roundup
Issued by NWS

Home | Current Version | Previous Version | Text Only | Print | Product List | Glossary On
Versions: 1 2 3 4 5 6 7 8 9 10 11 12 13 14 15 16 17 18 19 20 21 22 23 24 25 26 27 28 29 30 31 32 33 34 35 36 37 38 39 40 41 42 43 44 45 46 47 48 49 50
000
ASUS44 KOUN 060710
RWROK

WEATHER ROUNDUP FOR OKLAHOMA
NATIONAL WEATHER SERVICE NORMAN OK
200 AM CDT MON JUL 06 2015

NOTE: "FAIR" INDICATES FEW OR NO CLOUDS BELOW 12,000 FEET WITH NO
      SIGNIFICANT WEATHER AND/OR OBSTRUCTIONS TO VISIBILITY.

OKZ001>007-009>012-014-015-017-060800-
NORTHWEST OKLAHOMA AND THE PANHANDLE

CITY           SKY/WX    TMP DP  RH WIND       PRES   REMARKS
GAGE           CLEAR     78  65  63 S21G28    29.91S
GUYMON         CLEAR     77  63  61 S14       29.89S
ENID/WOODRING  MOCLDY    81  70  69 S12       29.90S
$$

OKZ016-021>023-033>039-044-045-060800-
SOUTHWEST OKLAHOMA

CITY           SKY/WX    TMP DP  RH WIND       PRES   REMARKS
LAWTON/REGL    CLEAR     80  70  71 S10       29.92S
LAWTON/FT SILL PTCLDY    79  72  77 S10       29.91F
FREDERICK      CLEAR     80  70  71 S15       29.89S
CLINTON        CLEAR     79  67  66 S15       29.95S
HOBART         CLEAR     78  68  71 S13       29.93S
ALTUS AFB      CLEAR     79  69  69 SE10      29.91S
$$

OKZ018>020-024>031-060800-
CENTRAL OKLAHOMA

CITY           SKY/WX    TMP DP  RH WIND       PRES   REMARKS
OKLAHOMA CITY  MOCLDY    77  70  79 S10       29.94S
OKC/WILEY POST PTCLDY    80  69  69 S15G23    29.93F
STILLWATER     PTCLDY    79  70  74 S13       29.92S
GUTHRIE        PTCLDY    80  69  69 S12       29.92S
$$

OKZ008-013-054>072-060800-
NORTHEAST OKLAHOMA

CITY           SKY/WX    TMP DP  RH WIND       PRES   REMARKS
TULSA          CLOUDY    78  73  84 SE7       29.93S
TULSA/JONES    PTCLDY    81  70  69 S9        29.94R
PONCA CITY     MOCLDY    81  69  67 VRB7      29.91S
BARTLESVILLE   PTCLDY    76  74  93 SE5       29.93S
MUSKOGEE       PTCLDY    74  72  93 SE10      29.97R
$$

OKZ032-040>043-046>053-073>077-060800-
SOUTH CENTRAL/SOUTHEAST OKLAHOMA

CITY           SKY/WX    TMP DP  RH WIND       PRES   REMARKS
ARDMORE/DWNTWN CLEAR     79  70  73 S6        29.95F
MCALESTER      PTCLDY    79  71  76 S6        29.96F
$$



USA.gov is the U.S. government's official web portal to all federal, state and local government web resources and services.